EW9174 Weather Reports


Display with metric or nautical units.
time (UTC)temp
F
wind
direction
speed
MPH
gust
MPH
rain 1hr
in
rain 24hr
in
rain mn
in
humidity
%
barometer
mb
20240527064523 55 68 0.0 0.0 0.00 0.00 0.00 45 1008.7
20240527063017 56 69 0.0 0.0 0.00 0.00 0.00 44 1008.7
20240527061520 57 69 0.0 1.0 0.00 0.00 0.00 42 1008.5
20240527060008 58 69 0.0 1.0 0.00 0.00 0.00 40 1008.5
20240527054507 59 69 0.0 1.0 0.00 0.00 0.00 39 1008.4
20240527053014 61 69 0.0 2.0 0.00 0.00 0.00 38 1008.3
20240527051507 61 68 0.0 2.0 0.00 0.00 0.00 36 1008.1
20240527050005 62 69 0.0 1.0 0.00 0.00 0.00 35 1007.9
20240527044504 63 69 0.0 0.0 0.00 0.00 0.00 35 1007.6
20240527043002 64 69 0.0 1.0 0.00 0.00 0.00 32 1007.7
20240527041559 65 72 0.0 1.0 0.00 0.00 0.00 31 1007.5
20240527040104 66 72 0.0 1.0 0.00 0.00 0.00 30 1007.1
20240527034559 66 59 0.0 2.0 0.00 0.00 0.00 30 1006.8
20240527033054 67 64 0.0 3.0 0.00 0.00 0.00 29 1006.5
20240527031609 67 70 0.0 2.0 0.00 0.00 0.00 29 1006.1
20240527030048 68 34 0.0 0.0 0.00 0.00 0.00 29 1005.7
20240527024544 71 34 0.0 2.0 0.00 0.00 0.00 26 1005.3
20240527023042 72 34 0.0 4.0 0.00 0.00 0.00 22 1005.1
20240527021539 74 30 0.0 1.0 0.00 0.00 0.00 20 1004.7
20240527020037 77 29 0.0 1.0 0.00 0.00 0.00 23 1004.4
20240527014542 79 29 0.0 1.0 0.00 0.00 0.00 19 1004.1
20240527013038 80 29 0.0 5.0 0.00 0.00 0.00 16 1003.8
20240527011531 81 349 1.0 6.0 0.00 0.00 0.00 17 1003.6
20240527010029 81 14 2.0 6.0 0.00 0.00 0.00 16 1003.3
20240527004528 82 23 2.0 5.0 0.00 0.00 0.00 16 1003.1
20240527003027 82 52 1.0 6.0 0.00 0.00 0.00 16 1002.8
20240527001526 82 30 4.0 9.0 0.00 0.00 0.00 15 1002.8
20240527000027 83 26 3.0 6.0 0.00 0.00 0.00 14 1002.6
20240526234525 83 355 2.0 9.0 0.00 0.00 0.00 16 1002.4
20240526233030 83 26 1.0 7.0 0.00 0.00 0.00 16 1002.5
20240526231526 83 21 2.0 6.0 0.00 0.00 0.00 16 1002.3
20240526230029 82 28 3.0 8.0 0.00 0.00 0.00 16 1002.3
20240526224522 84 45 1.0 5.0 0.00 0.00 0.00 14 1002.2
20240526223020 83 24 3.0 8.0 0.00 0.00 0.00 14 1002.2
20240526221525 83 78 1.0 5.0 0.00 0.00 0.00 15 1002.0
20240526220030 83 19 3.0 8.0 0.00 0.00 0.00 14 1002.0
20240526214515 82 351 4.0 10.0 0.00 0.00 0.00 14 1002.1
20240526213012 82 60 2.0 7.0 0.00 0.00 0.00 17 1002.0
20240526211512 81 30 1.0 8.0 0.00 0.00 0.00 16 1001.9
20240526210010 82 24 3.0 7.0 0.00 0.00 0.00 17 1002.0
20240526204510 81 360 0.0 6.0 0.00 0.00 0.00 18 1002.0
20240526203005 80 321 4.0 9.0 0.00 0.00 0.00 17 1002.1
20240526201507 80 5 1.0 5.0 0.00 0.00 0.00 19 1002.2
20240526200006 79 22 2.0 11.0 0.00 0.00 0.00 19 1002.1
20240526194500 78 283 1.0 7.0 0.00 0.00 0.00 19 1002.2
20240526193058 78 290 2.0 12.0 0.00 0.00 0.00 17 1002.2
20240526191557 78 329 2.0 8.0 0.00 0.00 0.00 19 1002.4
20240526190100 77 323 1.0 6.0 0.00 0.00 0.00 22 1002.4
20240526184556 76 232 2.0 8.0 0.00 0.00 0.00 20 1002.6
20240526183051 76 294 0.0 10.0 0.00 0.00 0.00 21 1002.8
20240526181632 75 26 2.0 6.0 0.00 0.00 0.00 23 1003.0
20240526180046 74 340 3.0 10.0 0.00 0.00 0.00 21 1003.1
20240526174545 73 313 3.0 8.0 0.00 0.00 0.00 22 1003.1
20240526173041 73 205 3.0 9.0 0.00 0.00 0.00 24 1003.1
20240526171538 72 325 2.0 7.0 0.00 0.00 0.00 25 1003.2
20240526170042 71 288 1.0 7.0 0.00 0.00 0.00 26 1003.2
20240526164533 70 311 2.0 6.0 0.00 0.00 0.00 27 1003.3
20240526163032 69 5 2.0 6.0 0.00 0.00 0.00 27 1003.2
20240526161537 69 297 1.0 12.0 0.00 0.00 0.00 27 1003.3
20240526160031 68 307 3.0 10.0 0.00 0.00 0.00 27 1003.3
20240526154524 68 355 3.0 9.0 0.00 0.00 0.00 28 1003.2
20240526153022 67 308 3.0 11.0 0.00 0.00 0.00 28 1003.3
20240526151529 67 5 3.0 11.0 0.00 0.00 0.00 28 1003.3
20240526150019 65 205 3.0 12.0 0.00 0.00 0.00 29 1003.3
20240526144518 64 331 3.0 12.0 0.00 0.00 0.00 30 1003.2
20240526143010 63 187 3.0 10.0 0.00 0.00 0.00 30 1003.3
20240526141530 63 323 4.0 12.0 0.00 0.00 0.00 31 1003.2
20240526140006 62 360 2.0 8.0 0.00 0.00 0.00 31 1003.2
20240526134502 61 5 4.0 11.0 0.00 0.00 0.00 31 1002.8
20240526133058 60 322 3.0 8.0 0.00 0.00 0.00 32 1002.6
20240526131555 59 315 4.0 8.0 0.00 0.00 0.00 33 1002.5
20240526130055 59 355 4.0 12.0 0.00 0.00 0.00 33 1002.5
20240526124557 58 26 2.0 8.0 0.00 0.00 0.00 34 1002.4
20240526123058 57 355 3.0 10.0 0.00 0.00 0.00 35 1002.1
20240526121550 56 325 2.0 8.0 0.00 0.00 0.00 37 1002.0
20240526120103 55 5 2.0 6.0 0.00 0.00 0.00 37 1001.9
20240526114549 55 331 1.0 4.0 0.00 0.00 0.00 38 1002.0
20240526113056 56 46 0.0 3.0 0.00 0.00 0.00 38 1001.9
20240526111547 56 282 1.0 5.0 0.00 0.00 0.00 37 1001.7
20240526110049 56 335 0.0 5.0 0.00 0.00 0.00 37 1001.5
20240526104553 55 341 2.0 7.0 0.00 0.00 0.00 37 1001.3
20240526103044 55 312 0.0 5.0 0.00 0.00 0.00 37 1001.6
20240526101547 56 22 2.0 5.0 0.00 0.00 0.00 36 1001.8
20240526100043 57 23 1.0 4.0 0.00 0.00 0.00 36 1001.5
20240526094542 58 11 3.0 8.0 0.00 0.00 0.00 35 1001.4
20240526093039 58 19 3.0 10.0 0.00 0.00 0.00 35 1001.1
20240526091538 58 305 2.0 7.0 0.00 0.00 0.00 36 1001.0
20240526090041 58 11 4.0 10.0 0.00 0.00 0.00 37 1000.7
20240526084534 57 110 4.0 9.0 0.00 0.00 0.00 39 1000.4
20240526083041 54 211 0.0 2.0 0.00 0.00 0.00 60 1000.1
20240526081528 54 51 0.0 1.0 0.00 0.00 0.00 63 1000.3
20240526080022 55 51 0.0 0.0 0.00 0.00 0.00 62 1000.3
20240526074519 56 51 0.0 1.0 0.00 0.00 0.00 60 1000.3
20240526073016 57 51 0.0 1.0 0.00 0.00 0.00 58 1000.2
20240526071513 57 51 0.0 0.0 0.00 0.00 0.00 58 1000.1
20240526070011 58 51 0.0 1.0 0.00 0.00 0.00 57 999.8